Hoolehua, HI

3:36 AM HST on February 24, 2017 (GMT -1000)
Molokai

Weather History for PHMK - May, 2013

Change the Weather History Date:

Monday, May 27, 2013

  Actual Average Record
Temperature  
Mean Temperature 76 °F -  
Max Temperature 81 °F 82 °F 87 °F (1992)
Min Temperature 71 °F 67 °F 61 °F (1981)
Cooling Degree Days 11    
Growing Degree Days 26 (Base 50)    
Moisture  
Dew Point 66 °F    
Average Humidity 74    
Maximum Humidity 87    
Minimum Humidity 64    
Precipitation  
Precipitation 0.00 in - - ()
Sea Level Pressure  
Sea Level Pressure 30.09 in    
Wind  
Wind Speed 12 mph (NE)    
Max Wind Speed 18 mph    
Max Gust Speed 31 mph    
Visibility 10 miles    
Events      
Averages and records for this station are not official NWS values.
T = Trace of Precipitation, MM = Missing Value Source: NWS Daily Summary

Daily Weather History Graph

Daily Weather History Graph

Search for Another Location

Airport or City:

Trip Planner

Search our weather history database for the weather conditions in past years. The results will help you decide how hot, cold, wet, or windy it might be!

Date:

Astronomy

May. 27, 2013 Rise Set
Actual Time 5:46 AM HST 7:04 PM HST
Civil Twilight 5:22 AM HST 7:28 PM HST
Nautical Twilight 4:53 AM HST 7:57 PM HST
Astronomical Twilight 4:23 AM HST 8:27 PM HST
Moon 10:02 PM HST (5/27) 8:31 AM HST (5/27)
Length of Visible Light 14h 06m
Length of Day
13h 17m
Waning Gibbous, 89% of the Moon is Illuminated
May 27
Waning Gibbous
May 31
Last Quarter
Jun 8
New
Jun 16
First Quarter
Jun 23
Full

Hourly Weather History & Observations

Time (HST) Temp. Heat Index Dew Point Humidity Pressure Visibility Wind Dir Wind Speed Gust Speed Precip Events Conditions
12:54 AM 72.0 °F - 66.0 °F 81% 30.11 in 10.0 mi NE 11.5 mph 19.6 mph N/A   Clear
1:54 AM 71.1 °F - 66.9 °F 87% 30.09 in 10.0 mi NE 9.2 mph - N/A   Clear
2:54 AM 71.1 °F - 66.0 °F 84% 30.07 in 10.0 mi NE 10.4 mph 18.4 mph N/A   Clear
3:54 AM 71.1 °F - 64.9 °F 81% 30.06 in 10.0 mi NE 10.4 mph 18.4 mph N/A   Clear
4:54 AM 71.1 °F - 64.9 °F 81% 30.05 in 10.0 mi NE 13.8 mph 20.7 mph N/A   Clear
5:54 AM 71.1 °F - 64.9 °F 81% 30.07 in 10.0 mi NE 10.4 mph 18.4 mph N/A   Clear
6:54 AM 73.0 °F - 66.0 °F 79% 30.08 in 10.0 mi NE 11.5 mph 19.6 mph N/A   Clear
7:54 AM 75.9 °F - 66.9 °F 74% 30.09 in 10.0 mi ENE 13.8 mph 20.7 mph N/A   Clear
8:54 AM 79.0 °F - 66.0 °F 64% 30.10 in 10.0 mi East 12.7 mph 17.3 mph N/A   Partly Cloudy
9:54 AM 80.1 °F 82.3 °F 66.9 °F 64% 30.10 in 10.0 mi NNE 12.7 mph 23.0 mph N/A   Scattered Clouds
10:54 AM 79.0 °F - 66.9 °F 66% 30.10 in 10.0 mi NE 15.0 mph 21.9 mph N/A   Scattered Clouds
11:54 AM 80.1 °F 82.7 °F 68.0 °F 67% 30.10 in 10.0 mi NE 16.1 mph 26.5 mph N/A   Scattered Clouds
12:54 PM 80.1 °F 82.7 °F 68.0 °F 67% 30.09 in 10.0 mi NE 18.4 mph 26.5 mph N/A   Scattered Clouds
1:54 PM 81.0 °F 83.8 °F 68.0 °F 65% 30.08 in 10.0 mi NE 13.8 mph 31.1 mph N/A   Scattered Clouds
2:54 PM 78.1 °F - 66.9 °F 68% 30.07 in 10.0 mi ENE 11.5 mph 23.0 mph 0.00 in   Scattered Clouds
3:54 PM 79.0 °F - 66.9 °F 66% 30.05 in 10.0 mi NE 17.3 mph 24.2 mph N/A   Mostly Cloudy
4:54 PM 78.1 °F - 64.9 °F 64% 30.06 in 10.0 mi NNE 9.2 mph 20.7 mph N/A   Scattered Clouds
5:54 PM 77.0 °F - 66.9 °F 71% 30.06 in 10.0 mi NE 11.5 mph 21.9 mph N/A   Scattered Clouds
6:54 PM 73.9 °F - 66.0 °F 76% 30.07 in 10.0 mi NE 10.4 mph 19.6 mph N/A   Mostly Cloudy
7:54 PM 73.0 °F - 64.9 °F 76% 30.10 in 10.0 mi NE 6.9 mph 16.1 mph N/A   Overcast
8:54 PM 73.0 °F - 66.0 °F 79% 30.12 in 10.0 mi NE 10.4 mph 18.4 mph N/A   Overcast
9:54 PM 73.0 °F - 64.9 °F 76% 30.13 in 10.0 mi NE 11.5 mph - N/A   Overcast
10:54 PM 73.0 °F - 64.9 °F 76% 30.12 in 10.0 mi NE 8.1 mph - N/A   Overcast
11:54 PM 73.0 °F - 64.0 °F 73% 30.11 in 10.0 mi NE 5.8 mph - N/A   Overcast